EDT,Max TemperatureF,Mean TemperatureF,Min TemperatureF,Max Dew PointF,MeanDew PointF,Min DewpointF,Max Humidity, Mean Humidity, Min Humidity, Max Sea Level PressureIn, Mean Sea Level PressureIn, Min Sea Level PressureIn, Max VisibilityMiles, Mean VisibilityMiles, Min VisibilityMiles, Max Wind SpeedMPH, Mean Wind SpeedMPH, Max Gust SpeedMPH,PrecipitationIn, CloudCover, Events, WindDirDegrees
2013-4-1,57,46,34,43,35,10,100,75,33,29.92,29.72,29.63,10,6,1,14,3,23,0.03,6,Rain,246
2013-4-2,42,34,26,15,10,6,63,38,26,30.09,29.99,29.93,10,10,10,15,4,25,0.00,2,Rain,276
2013-4-3,44,36,30,13,10,7,47,36,24,30.32,30.17,30.08,10,10,10,16,7,28,0.00,2,Rain,296
2013-4-4,54,40,27,20,17,13,58,39,24,30.38,30.24,30.06,10,10,10,13,5,20,0.00,0,Rain,213
2013-4-5,60,46,34,27,20,16,70,38,21,30.03,29.91,29.76,10,10,10,14,5,29,0.00,0,Rain,326
2013-4-6,52,40,30,23,12,2,66,35,14,30.30,30.22,30.05,10,10,10,14,4,18,0.00,0,Rain,339
2013-4-7,63,48,32,38,29,23,69,49,30,30.27,30.12,29.96,10,10,10,16,6,28,0.00,1,Rain,197
2013-4-8,75,56,39,45,38,34,86,52,23,30.09,30.02,29.97,10,10,10,8,2,21,0.00,1,Rain,186
2013-4-9,79,65,52,49,42,33,86,49,19,29.98,29.95,29.91,10,10,10,16,4,28,0.00,1,Rain,264
2013-4-10,73,60,48,57,52,42,100,77,51,29.95,29.88,29.81,10,7,1,17,4,34,0.33,4,Rain-Thunderstorm,87
2013-4-11,60,55,50,58,52,46,96,89,83,29.94,29.87,29.81,10,9,3,13,4,18,0.01,8,,29
2013-4-12,,,,,,,,,,,,,,,,,,,,,,
2013-4-13,,,,,,,,,,,,,,,,,,,,,,
2013-4-14,,,,,,,,,,,,,,,,,,,,,,
2013-4-15,,,,,,,,,,,,,,,,,,,,,,
2013-4-16,70,66,64,54,53,49,70,62,56,30.22,30.13,30.09,10,10,10,13,8,25,0.00,6,Rain,215
2013-4-17,70,58,46,54,40,29,88,55,23,30.31,30.20,30.12,10,10,10,10,4,26,0.01,3,Rain,5
2013-4-18,59,48,37,53,41,32,90,73,36,30.32,30.24,30.08,10,10,6,13,3,22,0.02,6,Rain,156
2013-4-19,77,64,53,62,57,43,93,79,57,30.06,29.78,29.58,10,7,1,24,7,39,0.78,8,Rain-Thunderstorm,213
2013-4-20,57,48,39,47,31,19,89,51,28,30.34,29.97,29.70,10,10,10,13,5,24,0.07,4,Rain,279
2013-4-21,54,42,30,27,21,17,69,45,29,30.62,30.53,30.36,10,10,10,12,3,18,0.00,0,Rain,22
2013-4-22,55,42,30,31,26,21,82,53,30,30.65,30.58,30.51,10,10,10,14,4,21,0.00,0,Rain,87
2013-4-23,50,42,35,37,33,28,89,72,64,30.48,30.32,30.14,10,10,10,13,5,16,0.00,5,,32
2013-4-24,73,52,30,52,39,27,100,73,41,30.11,29.97,29.78,10,8,1,13,3,20,0.00,2,,206
2013-4-25,63,52,39,54,29,21,73,45,20,30.27,30.13,29.84,10,10,9,20,7,36,0.01,1,Rain,308
2013-4-26,64,48,32,35,27,20,89,47,20,30.43,30.37,30.27,10,10,10,10,3,16,0.00,0,Rain,351
2013-4-27,70,52,33,37,31,25,89,50,23,30.45,30.36,30.26,10,10,10,10,1,,0.00,1,Rain,22
2013-4-28,72,54,37,39,36,29,93,51,29,30.30,30.23,30.16,10,10,10,12,3,22,0.00,0,Rain,189
2013-4-29,55,52,48,47,46,36,93,78,49,30.22,30.20,30.18,10,10,6,12,3,20,0.05,8,Rain,150
2013-4-30,68,56,43,49,41,25,89,63,27,30.34,30.27,30.20,10,10,5,9,3,,0.01,4,Rain,94